DW0805 Weather Reports


time (UTC)temp
C
wind
direction
speed
KPH
gust
KPH
rain 1hr
cm
rain 24hr
cm
rain mn
cm
humidity
%
barometer
mb
20260510214514 6 337 3.2 4.8 0.00 0.00 0.00 85 1008.0
20260510205513 6 323 1.6 3.2 0.00 0.00 0.00 87 1008.5
20260510204513 6 323 0.0 1.6 0.00 0.00 0.00 87 1008.7
20260510203513 7 322 0.0 1.6 0.00 0.00 0.00 87 1008.8
20260510202513 7 322 0.0 1.6 0.00 0.00 0.00 87 1008.8
20260510200514 7 322 1.6 3.2 0.00 0.00 0.00 85 1009.0
20260510195513 7 323 0.0 0.0 0.00 0.00 0.00 84 1008.9
20260510193514 8 323 0.0 0.0 0.00 0.00 0.00 83 1008.9
20260510192514 8 323 0.0 0.0 0.00 0.00 0.00 83 1008.9
20260510190513 10 341 0.0 0.0 0.00 0.00 0.00 80 1008.9
20260510185511 10 325 0.0 0.0 0.00 0.00 0.00 78 1009.0
20260510184512 10 341 0.0 0.0 0.00 0.00 0.00 77 1009.0
20260510183512 11 323 0.0 1.6 0.00 0.00 0.00 76 1009.1
20260510182512 11 325 0.0 3.2 0.00 0.00 0.00 75 1009.2
20260510165512 13 293 8.0 14.5 0.00 0.00 0.00 71 1010.1
20260510163512 14 335 4.8 9.7 0.00 0.00 0.00 66 1010.2
20260510161513 15 313 8.0 16.1 0.00 0.00 0.00 63 1010.2
20260510160512 16 327 3.2 14.5 0.00 0.00 0.00 66 1010.3
20260510155512 16 342 4.8 12.9 0.00 0.00 0.00 65 1010.4
20260510153511 15 299 4.8 14.5 0.00 0.00 0.00 66 1010.6
20260510152512 15 336 11.3 16.1 0.00 0.00 0.00 63 1010.7
20260510150512 15 334 8.0 14.5 0.00 0.00 0.00 61 1010.9
20260510145512 15 332 9.7 14.5 0.00 0.00 0.00 61 1011.0
20260510141512 15 298 6.4 16.1 0.00 0.00 0.00 57 1011.4
20260510135512 15 290 8.0 19.3 0.00 0.00 0.00 61 1011.6
20260510134513 15 347 11.3 20.9 0.00 0.00 0.00 57 1011.6
20260510130512 16 345 8.0 22.5 0.00 0.00 0.00 49 1011.9
20260510123512 15 345 8.0 19.3 0.00 0.00 0.00 65 1012.1
20260510120512 15 291 11.3 16.1 0.00 0.00 0.00 63 1012.2
20260510114512 14 320 8.0 16.1 0.00 0.00 0.00 75 1012.5
20260510113513 14 287 8.0 20.9 0.00 0.00 0.00 73 1012.6
20260510112512 15 300 8.0 19.3 0.00 0.00 0.00 68 1012.7
20260510111513 15 331 12.9 20.9 0.00 0.00 0.00 67 1012.8
20260510104512 15 279 8.0 19.3 0.00 0.00 0.00 70 1013.0
20260510103512 15 196 4.8 9.7 0.00 0.00 0.00 72 1013.1
20260510093513 12 204 4.8 9.7 0.00 0.00 0.00 78 1013.9
20260510091513 12 227 6.4 11.3 0.00 0.00 0.00 79 1014.1
20260510082512 11 204 3.2 8.0 0.00 0.00 0.00 83 1014.2
20260510075512 11 198 3.2 9.7 0.00 0.00 0.00 83 1014.2
20260510073512 11 151 4.8 9.7 0.00 0.00 0.00 84 1014.3
20260510072512 11 179 4.8 9.7 0.00 0.00 0.00 84 1014.4
20260510070513 10 159 4.8 11.3 0.00 0.00 0.00 84 1014.6
20260510065512 10 165 4.8 12.9 0.00 0.00 0.00 83 1014.7
20260510063513 10 152 6.4 11.3 0.00 0.00 0.00 84 1014.7
20260510062512 10 147 3.2 11.3 0.00 0.00 0.00 85 1014.8
20260510061512 10 169 3.2 11.3 0.00 0.00 0.00 85 1014.9
20260510060512 9 166 1.6 9.7 0.00 0.00 0.00 85 1015.0
20260510055512 9 186 4.8 11.3 0.00 0.00 0.00 86 1015.0
20260510054513 9 156 3.2 8.0 0.00 0.00 0.00 86 1015.0
20260510052512 8 155 4.8 9.7 0.00 0.00 0.00 87 1015.0
20260510051512 8 142 3.2 9.7 0.00 0.00 0.00 87 1015.3
20260510050512 8 137 1.6 8.0 0.00 0.00 0.00 87 1015.4
20260510045512 8 135 3.2 8.0 0.00 0.00 0.00 86 1015.4
20260510042512 7 130 3.2 9.7 0.00 0.00 0.00 87 1015.6
20260510035513 7 109 6.4 11.3 0.00 0.00 0.00 88 1016.0
20260510033512 7 111 6.4 9.7 0.00 0.00 0.00 88 1016.1
20260510031512 6 103 3.2 9.7 0.00 0.00 0.00 89 1016.2
20260510030512 6 106 3.2 9.7 0.00 0.00 0.00 90 1016.2
20260510024513 6 105 1.6 3.2 0.00 0.00 0.00 89 1016.5
20260510022513 6 106 8.0 9.7 0.00 0.00 0.00 88 1016.8
20260510021513 6 121 6.4 9.7 0.00 0.00 0.00 88 1016.9
20260510015512 6 78 0.0 9.7 0.00 0.00 0.00 85 1016.9
20260510014514 6 86 4.8 9.7 0.00 0.00 0.00 85 1016.9
20260510013513 6 98 4.8 8.0 0.00 0.00 0.00 84 1017.1
20260510011512 6 113 4.8 9.7 0.00 0.00 0.00 83 1017.3
20260510004513 6 105 3.2 8.0 0.00 0.00 0.00 82 1017.7
20260510001513 7 105 6.4 9.7 0.00 0.00 0.00 79 1018.4
20260509235512 7 109 4.8 9.7 0.00 0.00 0.00 80 1018.4
20260509233513 6 107 4.8 9.7 0.00 0.00 0.00 81 1018.7
20260509230513 7 105 8.0 9.7 0.00 0.00 0.00 80 1019.0
20260509225512 7 101 8.0 11.3 0.00 0.00 0.00 80 1019.1
20260509222513 8 138 3.2 9.7 0.00 0.00 0.00 79 1019.3
20260509221509 8 161 3.2 9.7 0.00 0.00 0.00 78 1019.3
20260509215513 8 177 1.6 8.0 0.00 0.00 0.00 77 1019.3